Tracking 19192 objects as of 19-Jun-2018
HD Live streaming from Space Station
objects crossing your sky now

CZ-4 DEB

Track CZ-4 DEB now!
10-day predictions


NORAD ID: 26259
Int'l Code: 1999-057EV
Perigee: 667.3 km
Apogee: 795.8 km
Inclination: 98.6 °
Period: 99.3 minutes
Semi major axis: 7102 km
RCS: 0.031 m2 (small)
Launch date: October 14, 1999
Source: People's Republic of China (PRC)
Launch site: Taiyaun Space Center, China (TSC)

Note: This is SATELLITE DEBRIS
aabbcc
Your satellite tracking list
Your tracking list is empty




NASA's NSSDC Master Catalog

Two Line Element Set (TLE):
1 26259U 99057EV  18169.55497685 +.00000491 +00000-0 +13187-3 0  9995
2 26259 098.5888 163.8804 0090471 000.7022 119.9893 14.50387061958977
Source of the keplerian elements: AFSPC